PUA1502 SUMU-SABE

Flight info

Callsign PUA1502
Flight time 0h 30m
Altitude 18000
Route DAGUS A306 UGIMI UGIMI8Q
Aircraft A320/M-SDE3FGHIRWY/LB1

Departure

Time 2026-05-06 23:39
Airport Carrasco General Cesáreo L. Berisso International Airport (SUMU)

Arrival

Time 2026-05-07 00:09
Airport Aeroparque Jorge Newbery (SABE)
Time Latitude Longitude Altitude Speed Heading
2026-05-06 23:21 -34.83706 -56.01922 86 ft 0 kts 142°
2026-05-06 23:31 -34.83701 -56.01927 87 ft 4 kts 142°
2026-05-06 23:31 -34.83680 -56.01948 87 ft 4 kts 137°
2026-05-06 23:32 -34.83661 -56.01971 84 ft 4 kts 129°
2026-05-06 23:32 -34.83647 -56.01998 86 ft 4 kts 99°
2026-05-06 23:32 -34.83648 -56.02018 86 ft 1 kts 53°
2026-05-06 23:32 -34.83650 -56.02021 87 ft 2 kts 53°
2026-05-06 23:35 -34.83648 -56.02017 86 ft 2 kts 53°
2026-05-06 23:35 -34.83633 -56.01993 84 ft 5 kts 53°
2026-05-06 23:35 -34.83608 -56.01951 83 ft 7 kts 53°
2026-05-06 23:35 -34.83572 -56.01891 85 ft 10 kts 53°
2026-05-06 23:36 -34.83526 -56.01816 85 ft 12 kts 53°
2026-05-06 23:36 -34.83458 -56.01761 85 ft 13 kts 339°
2026-05-06 23:36 -34.83376 -56.01822 83 ft 15 kts 324°
2026-05-06 23:36 -34.83281 -56.01830 87 ft 16 kts 46°
2026-05-06 23:37 -34.83211 -56.01715 83 ft 18 kts 52°
2026-05-06 23:37 -34.83134 -56.01590 82 ft 19 kts 53°
2026-05-06 23:37 -34.83050 -56.01453 82 ft 21 kts 53°
2026-05-06 23:37 -34.82959 -56.01308 86 ft 22 kts 53°
2026-05-06 23:38 -34.82850 -56.01261 83 ft 19 kts 332°
2026-05-06 23:38 -34.82787 -56.01355 82 ft 13 kts 239°
2026-05-06 23:38 -34.82943 -56.01613 83 ft 72 kts 233°
2026-05-06 23:38 -34.83370 -56.02314 82 ft 132 kts 233°
2026-05-06 23:39 -34.84011 -56.03369 102 ft 174 kts 234°
2026-05-06 23:39 -34.84759 -56.04592 506 ft 184 kts 232°
2026-05-06 23:39 -34.85562 -56.05789 1190 ft 183 kts 233°
2026-05-06 23:39 -34.86454 -56.06900 1765 ft 187 kts 233°
2026-05-06 23:40 -34.87481 -56.08026 2019 ft 209 kts 230°
2026-05-06 23:40 -34.88608 -56.09243 2281 ft 231 kts 230°
2026-05-06 23:40 -34.89863 -56.10629 2569 ft 255 kts 230°
2026-05-06 23:40 -34.91214 -56.12144 2936 ft 268 kts 230°
2026-05-06 23:41 -34.92591 -56.13698 3452 ft 271 kts 231°
2026-05-06 23:41 -34.93700 -56.15442 3948 ft 258 kts 252°
2026-05-06 23:41 -34.94161 -56.17481 4468 ft 245 kts 272°
2026-05-06 23:41 -34.94287 -56.19546 4977 ft 244 kts 273°
2026-05-06 23:42 -34.94409 -56.21614 5492 ft 245 kts 273°
2026-05-06 23:42 -34.94533 -56.23678 6004 ft 244 kts 273°
2026-05-06 23:42 -34.94656 -56.25726 6507 ft 243 kts 273°
2026-05-06 23:42 -34.94779 -56.27784 6993 ft 245 kts 273°
2026-05-06 23:43 -34.94903 -56.29864 7496 ft 247 kts 273°
2026-05-06 23:43 -34.95028 -56.31963 8015 ft 249 kts 273°
2026-05-06 23:43 -34.95154 -56.34072 8680 ft 252 kts 272°
2026-05-06 23:43 -34.95281 -56.36216 9362 ft 255 kts 272°
2026-05-06 23:44 -34.95409 -56.38380 10010 ft 258 kts 272°
2026-05-06 23:44 -34.95538 -56.40585 10644 ft 263 kts 272°
2026-05-06 23:44 -34.95669 -56.42826 11289 ft 267 kts 272°
2026-05-06 23:44 -34.95801 -56.45102 11949 ft 271 kts 271°
2026-05-06 23:45 -34.95936 -56.47409 12627 ft 274 kts 271°
2026-05-06 23:45 -34.96071 -56.49706 13306 ft 276 kts 271°
2026-05-06 23:45 -34.96213 -56.52051 13950 ft 278 kts 271°
2026-05-06 23:45 -34.96353 -56.54404 14575 ft 279 kts 271°
2026-05-06 23:46 -34.96494 -56.56772 15220 ft 280 kts 271°
2026-05-06 23:46 -34.96632 -56.59140 15871 ft 281 kts 271°
2026-05-06 23:46 -34.96766 -56.61515 16543 ft 281 kts 271°
2026-05-06 23:46 -34.96897 -56.63886 17210 ft 281 kts 271°
2026-05-06 23:47 -34.97031 -56.66340 17384 ft 299 kts 271°
2026-05-06 23:47 -34.97174 -56.68947 17518 ft 317 kts 271°
2026-05-06 23:47 -34.97328 -56.71695 17665 ft 333 kts 270°
2026-05-06 23:47 -34.97489 -56.74587 17697 ft 352 kts 270°
2026-05-06 23:48 -34.97657 -56.77613 17696 ft 361 kts 270°
2026-05-06 23:48 -34.97832 -56.80687 17699 ft 364 kts 270°
2026-05-06 23:48 -34.98007 -56.83763 17691 ft 364 kts 270°
2026-05-06 23:48 -34.98182 -56.86834 17682 ft 358 kts 270°
2026-05-06 23:49 -34.98324 -56.89793 17686 ft 344 kts 272°
2026-05-06 23:49 -34.98368 -56.92698 17683 ft 341 kts 274°
2026-05-06 23:49 -34.98352 -56.95552 17682 ft 340 kts 275°
2026-05-06 23:49 -34.98313 -56.98431 17680 ft 340 kts 275°
2026-05-06 23:50 -34.98272 -57.01308 17677 ft 340 kts 275°
2026-05-06 23:50 -34.98212 -57.07067 17674 ft 340 kts 275°
2026-05-06 23:50 -34.98195 -57.09947 17674 ft 340 kts 275°
2026-05-06 23:51 -34.98184 -57.12826 17668 ft 340 kts 275°
2026-05-06 23:51 -34.98172 -57.15706 17670 ft 340 kts 275°
2026-05-06 23:51 -34.98158 -57.18591 17673 ft 340 kts 275°
2026-05-06 23:51 -34.98145 -57.21476 17677 ft 340 kts 275°
2026-05-06 23:52 -34.98122 -57.24355 17678 ft 339 kts 277°
2026-05-06 23:52 -34.97691 -57.27141 17675 ft 333 kts 291°
2026-05-06 23:52 -34.96901 -57.29795 17539 ft 333 kts 292°
2026-05-06 23:52 -34.96109 -57.32410 17250 ft 324 kts 292°
2026-05-06 23:53 -34.95329 -57.34962 16995 ft 320 kts 292°
2026-05-06 23:53 -34.94550 -57.37501 16741 ft 319 kts 292°
2026-05-06 23:53 -34.93775 -57.40030 16489 ft 318 kts 292°
2026-05-06 23:53 -34.93004 -57.42552 16241 ft 317 kts 292°
2026-05-06 23:54 -34.92235 -57.45070 15995 ft 317 kts 292°
2026-05-06 23:54 -34.91487 -57.47523 15678 ft 310 kts 292°
2026-05-06 23:54 -34.90729 -57.50003 15269 ft 307 kts 292°
2026-05-06 23:54 -34.89997 -57.52394 14860 ft 304 kts 292°
2026-05-06 23:55 -34.89261 -57.54793 14447 ft 302 kts 292°
2026-05-06 23:55 -34.88529 -57.57180 14031 ft 300 kts 292°
2026-05-06 23:55 -34.87802 -57.59558 13622 ft 298 kts 292°
2026-05-06 23:55 -34.87078 -57.61914 13184 ft 297 kts 292°
2026-05-06 23:56 -34.86359 -57.64255 12764 ft 294 kts 292°
2026-05-06 23:56 -34.85643 -57.66580 12355 ft 292 kts 293°
2026-05-06 23:56 -34.84935 -57.68881 11955 ft 289 kts 293°
2026-05-06 23:56 -34.84230 -57.71161 11556 ft 287 kts 294°
2026-05-06 23:57 -34.83529 -57.73429 11160 ft 285 kts 294°
2026-05-06 23:57 -34.82831 -57.75681 10772 ft 283 kts 294°
2026-05-06 23:57 -34.82137 -57.77919 10372 ft 282 kts 294°
2026-05-06 23:57 -34.81452 -57.80138 10111 ft 276 kts 294°
2026-05-06 23:58 -34.80794 -57.82275 10013 ft 264 kts 295°
2026-05-06 23:58 -34.80161 -57.84328 9907 ft 254 kts 295°
2026-05-06 23:58 -34.79562 -57.86274 9803 ft 244 kts 295°
2026-05-06 23:58 -34.78976 -57.88171 9696 ft 235 kts 296°
2026-05-06 23:59 -34.78403 -57.90016 9393 ft 235 kts 296°
2026-05-06 23:59 -34.77819 -57.91880 8940 ft 236 kts 296°
2026-05-06 23:59 -34.77246 -57.93718 8532 ft 228 kts 296°
2026-05-06 23:59 -34.76693 -57.95496 8142 ft 221 kts 296°
2026-05-07 00:00 -34.76158 -57.97216 7766 ft 214 kts 296°
2026-05-07 00:00 -34.75640 -57.98881 7405 ft 207 kts 296°
2026-05-07 00:00 -34.75130 -58.00518 7045 ft 208 kts 296°
2026-05-07 00:00 -34.74788 -58.01611 6810 ft 209 kts 296°
2026-05-07 00:01 -34.74093 -58.03832 6314 ft 212 kts 296°
2026-05-07 00:01 -34.73568 -58.05515 5944 ft 215 kts 295°
2026-05-07 00:01 -34.73032 -58.07225 5557 ft 218 kts 296°
2026-05-07 00:01 -34.72642 -58.08470 5276 ft 220 kts 296°
2026-05-07 00:02 -34.72104 -58.10190 5132 ft 212 kts 296°
2026-05-07 00:02 -34.71596 -58.11826 5053 ft 202 kts 296°
2026-05-07 00:02 -34.71112 -58.13385 4963 ft 194 kts 296°
2026-05-07 00:02 -34.70640 -58.14886 4887 ft 194 kts 297°
2026-05-07 00:03 -34.69977 -58.16331 4592 ft 200 kts 307°
2026-05-07 00:03 -34.69181 -58.17759 4144 ft 205 kts 307°
2026-05-07 00:03 -34.68385 -58.19185 3797 ft 202 kts 308°
2026-05-07 00:03 -34.67615 -58.20572 3470 ft 193 kts 308°
2026-05-07 00:04 -34.66899 -58.21871 3314 ft 176 kts 309°
2026-05-07 00:04 -34.66258 -58.23037 3239 ft 156 kts 309°
2026-05-07 00:04 -34.65692 -58.24062 3129 ft 137 kts 310°
2026-05-07 00:04 -34.65165 -58.25007 2949 ft 132 kts 311°
2026-05-07 00:05 -34.64648 -58.25930 2918 ft 135 kts 311°
2026-05-07 00:05 -34.64107 -58.26890 2832 ft 139 kts 311°
2026-05-07 00:05 -34.63563 -58.27864 2655 ft 139 kts 311°
2026-05-07 00:05 -34.63019 -58.28838 2466 ft 139 kts 312°
2026-05-07 00:06 -34.62477 -58.29807 2287 ft 139 kts 313°
2026-05-07 00:06 -34.61939 -58.30773 2093 ft 138 kts 313°
2026-05-07 00:06 -34.61403 -58.31738 1899 ft 138 kts 313°
2026-05-07 00:06 -34.60867 -58.32702 1701 ft 137 kts 313°
2026-05-07 00:07 -34.60336 -58.33657 1506 ft 136 kts 314°
2026-05-07 00:07 -34.59805 -58.34610 1321 ft 138 kts 315°
2026-05-07 00:07 -34.59265 -58.35568 1114 ft 137 kts 313°
2026-05-07 00:07 -34.58749 -58.36543 854 ft 136 kts 310°
2026-05-07 00:08 -34.58214 -58.37499 690 ft 137 kts 308°
2026-05-07 00:08 -34.57680 -58.38445 517 ft 138 kts 306°
2026-05-07 00:08 -34.57134 -58.39433 320 ft 141 kts 307°
2026-05-07 00:08 -34.56594 -58.40397 110 ft 139 kts 306°
2026-05-07 00:09 -34.56084 -58.41292 28 ft 103 kts 304°
2026-05-07 00:09 -34.55812 -58.41774 26 ft 50 kts 304°
2026-05-07 00:09 -34.55687 -58.41897 28 ft 12 kts 29°
2026-05-07 00:09 -34.55681 -58.41851 44 ft 0 kts 121°
2026-05-07 00:10 -34.55686 -58.41840 33 ft 3 kts 122°
2026-05-07 00:11 -34.55701 -58.41812 27 ft 5 kts 122°
2026-05-07 00:11 -34.55724 -58.41770 28 ft 7 kts 124°
2026-05-07 00:11 -34.55753 -58.41711 29 ft 9 kts 116°
2026-05-07 00:11 -34.55793 -58.41613 29 ft 15 kts 117°
2026-05-07 00:12 -34.55844 -58.41493 27 ft 17 kts 117°
2026-05-07 00:12 -34.55897 -58.41368 27 ft 15 kts 116°
2026-05-07 00:12 -34.55878 -58.41297 29 ft 9 kts 21°
2026-05-07 00:12 -34.55813 -58.41262 25 ft 8 kts 32°
2026-05-07 00:13 -34.55801 -58.41253 25 ft 0 kts 35°